QPF
0.01 0.01 0.01 0.01 0.01 0.02 0.02 0.03 0.03 0.01 0.01 0.00 0.00 0.00 0.00 0.00 0.00 0.00 0.00 0.00 0.00 0.00 0.00 0.00 0.00 0.00 0.00 0.00 0.00 0.00 0.00 0.00 0.00 0.00 0.00 0.01 0.01 0.00 0.00 0.02 0.03 0.06 0.10
0.01 0.01 0.01 0.01 0.02 0.02 0.02 0.01 0.01 0.01 0.00 0.00 0.00 0.00 0.00 0.00 0.00 0.00 0.00 0.00 0.00 0.00 0.00 0.00 0.00 0.00 0.00 0.00 0.00 0.00 0.00 0.00 0.00 0.00 0.00 0.01 0.01 0.00 0.00 0.00 0.01 0.03 0.05
0.01 0.01 0.01 0.01 0.02 0.02 0.02 0.02 0.03 0.02 0.00 0.00 0.01 0.00 0.00 0.00 0.00 0.00 0.00 0.00 0.00 0.00 0.00 0.00 0.00 0.00 0.00 0.00 0.00 0.00 0.00 0.00 0.00 0.00 0.01 0.00 0.01 0.01 0.01 0.00 0.01 0.01 0.02
0.01 0.01 0.01 0.01 0.02 0.02 0.01 0.02 0.02 0.02 0.02 0.01 0.01 0.01 0.00 0.00 0.00 0.00 0.00 0.00 0.00 0.00 0.00 0.00 0.00 0.00 0.00 0.00 0.00 0.00 0.00 0.00 0.00 0.00 0.00 0.01 0.01 0.02 0.02 0.01 0.00 0.01 0.01
0.01 0.01 0.00 0.01 0.02 0.01 0.01 0.01 0.01 0.01 0.01 0.01 0.01 0.01 0.01 0.00 0.00 0.00 0.00 0.00 0.00 0.00 0.00 0.00 0.00 0.00 0.00 0.00 0.00 0.00 0.00 0.00 0.00 0.00 0.01 0.01 0.01 0.01 0.02 0.01 0.01 0.01 0.01
0.01 0.01 0.01 0.01 0.02 0.01 0.01 0.01 0.01 0.01 0.01 0.01 0.01 0.01 0.01 0.01 0.01 0.00 0.00 0.00 0.00 0.00 0.00 0.00 0.00 0.00 0.00 0.00 0.00 0.00 0.00 0.00 0.00 0.01 0.00 0.00 0.01 0.01 0.03 0.03 0.02 0.01 0.01
0.02 0.02 0.02 0.01 0.01 0.01 0.01 0.01 0.01 0.00 0.00 0.00 0.01 0.01 0.01 0.01 0.01 0.00 0.00 0.00 0.00 0.00 0.00 0.00 0.00 0.00 0.00 0.00 0.00 0.00 0.00 0.00 0.00 0.00 0.01 0.00 0.01 0.01 0.03 0.03 0.02 0.01 0.02
0.02 0.02 0.03 0.02 0.01 0.02 0.01 0.01 0.00 0.00 0.01 0.01 0.00 0.00 0.00 0.00 0.00 0.00 0.00 0.00 0.00 0.00 0.00 0.00 0.00 0.00 0.00 0.00 0.00 0.00 0.00 0.00 0.00 0.00 0.00 0.01 0.02 0.01 0.01 0.01 0.01 0.01 0.01
0.04 0.04 0.03 0.02 0.02 0.02 0.02 0.01 0.01 0.01 0.01 0.01 0.01 0.01 0.01 0.01 0.01 0.00 0.00 0.00 0.00 0.00 0.00 0.00 0.00 0.00 0.00 0.00 0.00 0.00 0.00 0.00 0.00 0.00 0.00 0.00 0.01 0.01 0.00 0.00 0.01 0.00 0.00
0.03 0.05 0.06 0.05 0.03 0.03 0.03 0.02 0.02 0.02 0.01 0.01 0.01 0.01 0.01 0.01 0.01 0.01 0.00 0.01 0.01 0.01 0.00 0.00 0.00 0.00 0.00 0.00 0.00 0.00 0.00 0.00 0.00 0.00 0.00 0.00 0.00 0.00 0.00 0.00 0.00 0.00 0.00
0.02 0.03 0.04 0.03 0.03 0.02 0.02 0.02 0.02 0.02 0.02 0.01 0.01 0.01 0.01 0.01 0.01 0.01 0.02 0.02 0.02 0.02 0.01 0.01 0.00 0.00 0.00 0.00 0.00 0.00 0.00 0.00 0.00 0.00 0.00 0.00 0.00 0.00 0.00 0.00 0.00 0.00 0.00
0.00 0.01 0.01 0.01 0.01 0.02 0.04 0.04 0.04 0.03 0.02 0.02 0.02 0.01 0.01 0.01 0.01 0.01 0.03 0.02 0.02 0.02 0.01 0.01 0.01 0.00 0.00 0.00 0.00 0.00 0.00 0.00 0.00 0.00 0.00 0.00 0.00 0.00 0.00 0.00 0.00 0.00 0.00
0.01 0.01 0.01 0.01 0.01 0.01 0.01 0.02 0.03 0.03 0.02 0.02 0.02 0.01 0.01 0.01 0.01 0.01 0.02 0.02 0.02 0.02 0.01 0.01 0.01 0.01 0.00 0.00 0.00 0.00 0.00 0.00 0.00 0.00 0.00 0.00 0.00 0.00 0.00 0.00 0.00 0.00 0.00
0.02 0.02 0.01 0.01 0.01 0.01 0.01 0.01 0.01 0.01 0.01 0.01 0.01 0.01 0.01 0.02 0.02 0.02 0.03 0.03 0.02 0.01 0.01 0.01 0.01 0.00 0.00 0.00 0.00 0.00 0.00 0.00 0.00 0.00 0.00 0.00 0.00 0.00 0.00 0.00 0.00 0.00 0.00
0.02 0.02 0.01 0.01 0.01 0.01 0.01 0.01 0.01 0.01 0.01 0.01 0.01 0.02 0.02 0.02 0.02 0.01 0.01 0.01 0.02 0.01 0.01 0.00 0.00 0.00 0.00 0.00 0.00 0.00 0.00 0.00 0.00 0.00 0.00 0.00 0.00 0.00 0.00 0.00 0.00 0.00 0.00
0.02 0.02 0.02 0.02 0.02 0.01 0.01 0.01 0.01 0.01 0.01 0.01 0.01 0.01 0.01 0.01 0.01 0.01 0.01 0.01 0.01 0.01 0.00 0.00 0.00 0.00 0.00 0.00 0.00 0.00 0.00 0.00 0.00 0.00 0.00 0.00 0.00 0.00 0.00 0.00 0.00 0.00 0.01
0.02 0.03 0.02 0.01 0.02 0.02 0.01 0.01 0.01 0.01 0.01 0.01 0.01 0.01 0.01 0.01 0.01 0.01 0.01 0.01 0.01 0.00 0.00 0.00 0.00 0.00 0.00 0.00 0.00 0.00 0.00 0.00 0.00 0.00 0.00 0.00 0.00 0.00 0.00 0.00 0.00 0.01 0.02
0.01 0.02 0.03 0.03 0.02 0.02 0.02 0.02 0.02 0.02 0.02 0.02 0.02 0.02 0.01 0.01 0.01 0.01 0.01 0.01 0.00 0.00 0.00 0.00 0.00 0.00 0.00 0.00 0.00 0.00 0.00 0.00 0.00 0.00 0.00 0.00 0.00 0.00 0.00 0.00 0.01 0.01 0.01
0.02 0.02 0.02 0.03 0.03 0.02 0.03 0.03 0.04 0.04 0.03 0.02 0.01 0.02 0.02 0.02 0.02 0.02 0.01 0.01 0.01 0.00 0.00 0.00 0.00 0.00 0.00 0.00 0.01 0.01 0.01 0.01 0.00 0.00 0.01 0.00 0.00 0.00 0.01 0.01 0.01 0.01 0.01
0.02 0.02 0.02 0.02 0.02 0.02 0.03 0.03 0.03 0.02 0.01 0.01 0.01 0.01 0.02 0.01 0.02 0.02 0.01 0.00 0.00 0.00 0.00 0.00 0.00 0.01 0.01 0.01 0.01 0.01 0.01 0.01 0.01 0.01 0.01 0.01 0.01 0.01 0.01 0.01 0.01 0.01 0.02
0.01 0.01 0.02 0.01 0.01 0.01 0.01 0.01 0.01 0.01 0.01 0.01 0.01 0.02 0.03 0.02 0.02 0.02 0.01 0.00 0.00 0.00 0.00 0.00 0.01 0.01 0.01 0.01 0.01 0.01 0.01 0.01 0.01 0.01 0.02 0.02 0.01 0.01 0.01 0.01 0.01 0.01 0.02
0.01 0.01 0.01 0.01 0.01 0.01 0.01 0.00 0.00 0.00 0.00 0.01 0.01 0.01 0.02 0.02 0.01 0.01 0.01 0.00 0.00 0.00 0.00 0.00 0.00 0.00 0.00 0.00 0.00 0.01 0.01 0.01 0.01 0.01 0.02 0.02 0.01 0.01 0.01 0.01 0.01 0.01 0.02
0.01 0.01 0.01 0.01 0.01 0.01 0.01 0.01 0.00 0.00 0.00 0.00 0.01 0.01 0.01 0.02 0.01 0.01 0.00 0.00 0.00 0.00 0.00 0.00 0.00 0.00 0.00 0.00 0.00 0.00 0.00 0.00 0.01 0.01 0.02 0.02 0.01 0.01 0.01 0.02 0.02 0.02 0.02
0.01 0.01 0.01 0.01 0.01 0.01 0.02 0.02 0.01 0.01 0.01 0.01 0.01 0.01 0.01 0.01 0.01 0.01 0.01 0.01 0.00 0.00 0.00 0.00 0.00 0.00 0.00 0.00 0.00 0.00 0.00 0.00 0.01 0.01 0.01 0.01 0.01 0.01 0.01 0.01 0.01 0.02 0.02
0.02 0.01 0.02 0.02 0.01 0.01 0.02 0.01 0.01 0.01 0.01 0.01 0.01 0.01 0.01 0.02 0.02 0.02 0.01 0.01 0.01 0.00 0.00 0.00 0.00 0.00 0.00 0.00 0.00 0.00 0.01 0.01 0.01 0.01 0.01 0.01 0.01 0.01 0.01 0.01 0.01 0.02 0.02
0.01 0.01 0.01 0.02 0.02 0.02 0.02 0.02 0.01 0.01 0.01 0.01 0.01 0.02 0.02 0.01 0.01 0.02 0.01 0.01 0.01 0.01 0.00 0.00 0.00 0.00 0.00 0.00 0.01 0.01 0.02 0.02 0.01 0.01 0.01 0.01 0.01 0.01 0.01 0.02 0.02 0.02 0.03
MSLP
1016.78 1016.94 1017.14 1017.34 1017.54 1017.72 1017.87 1018.00 1018.12 1018.26 1018.43 1018.63 1018.84 1019.08 1019.30 1019.50 1019.66 1019.78 1019.85 1019.88 1019.90 1019.91 1019.93 1019.96 1020.01 1020.09 1020.19 1020.30 1020.44 1020.60 1020.78 1020.99 1021.21 1021.43 1021.65 1021.84 1021.99 1022.09 1022.12 1022.10 1022.03 1021.92 1021.80
1016.43 1016.59 1016.77 1016.97 1017.17 1017.35 1017.52 1017.68 1017.83 1018.00 1018.18 1018.39 1018.62 1018.85 1019.07 1019.27 1019.44 1019.58 1019.67 1019.74 1019.78 1019.82 1019.85 1019.89 1019.93 1019.99 1020.06 1020.15 1020.27 1020.41 1020.59 1020.79 1021.03 1021.27 1021.51 1021.73 1021.90 1022.01 1022.04 1022.00 1021.90 1021.76 1021.60
1016.08 1016.22 1016.39 1016.57 1016.76 1016.94 1017.11 1017.28 1017.45 1017.64 1017.84 1018.06 1018.30 1018.53 1018.76 1018.97 1019.15 1019.30 1019.42 1019.52 1019.60 1019.67 1019.74 1019.80 1019.86 1019.92 1019.99 1020.06 1020.16 1020.28 1020.44 1020.63 1020.85 1021.10 1021.34 1021.56 1021.73 1021.84 1021.87 1021.83 1021.71 1021.54 1021.35
1015.76 1015.86 1015.99 1016.14 1016.29 1016.45 1016.62 1016.79 1016.98 1017.18 1017.40 1017.64 1017.89 1018.13 1018.37 1018.58 1018.78 1018.95 1019.09 1019.23 1019.35 1019.47 1019.57 1019.67 1019.76 1019.83 1019.90 1019.97 1020.04 1020.14 1020.26 1020.42 1020.61 1020.83 1021.05 1021.26 1021.43 1021.53 1021.57 1021.52 1021.41 1021.23 1021.02
1015.51 1015.56 1015.62 1015.71 1015.80 1015.92 1016.06 1016.22 1016.41 1016.63 1016.88 1017.14 1017.41 1017.67 1017.92 1018.15 1018.35 1018.53 1018.70 1018.86 1019.02 1019.17 1019.32 1019.45 1019.57 1019.67 1019.75 1019.80 1019.86 1019.92 1020.00 1020.11 1020.25 1020.42 1020.61 1020.79 1020.95 1021.05 1021.10 1021.07 1020.97 1020.81 1020.61
1015.39 1015.35 1015.33 1015.33 1015.35 1015.40 1015.49 1015.63 1015.81 1016.05 1016.31 1016.60 1016.90 1017.18 1017.44 1017.67 1017.88 1018.06 1018.24 1018.41 1018.59 1018.76 1018.94 1019.11 1019.25 1019.37 1019.45 1019.51 1019.54 1019.57 1019.60 1019.66 1019.74 1019.86 1020.00 1020.15 1020.30 1020.41 1020.48 1020.48 1020.43 1020.30 1020.13
1015.43 1015.30 1015.18 1015.06 1014.98 1014.95 1014.98 1015.07 1015.24 1015.48 1015.76 1016.07 1016.39 1016.68 1016.95 1017.18 1017.38 1017.55 1017.71 1017.87 1018.04 1018.22 1018.41 1018.59 1018.75 1018.89 1018.99 1019.04 1019.06 1019.06 1019.06 1019.06 1019.10 1019.16 1019.26 1019.39 1019.53 1019.65 1019.75 1019.80 1019.79 1019.72 1019.59
1015.67 1015.45 1015.21 1014.98 1014.78 1014.65 1014.60 1014.65 1014.79 1015.01 1015.30 1015.61 1015.93 1016.23 1016.48 1016.69 1016.86 1016.99 1017.11 1017.23 1017.37 1017.53 1017.70 1017.89 1018.06 1018.21 1018.32 1018.38 1018.40 1018.39 1018.36 1018.34 1018.34 1018.37 1018.44 1018.55 1018.68 1018.83 1018.96 1019.06 1019.11 1019.10 1019.03
1016.11 1015.79 1015.45 1015.11 1014.81 1014.58 1014.45 1014.43 1014.52 1014.72 1014.98 1015.28 1015.58 1015.85 1016.07 1016.22 1016.33 1016.40 1016.45 1016.51 1016.59 1016.70 1016.85 1017.02 1017.19 1017.35 1017.47 1017.55 1017.59 1017.58 1017.55 1017.51 1017.49 1017.51 1017.56 1017.67 1017.81 1017.97 1018.13 1018.28 1018.39 1018.43 1018.42
1016.71 1016.32 1015.89 1015.46 1015.07 1014.75 1014.54 1014.46 1014.49 1014.63 1014.85 1015.10 1015.35 1015.56 1015.71 1015.80 1015.82 1015.80 1015.76 1015.74 1015.75 1015.80 1015.90 1016.04 1016.20 1016.36 1016.50 1016.59 1016.65 1016.66 1016.64 1016.61 1016.59 1016.60 1016.65 1016.75 1016.90 1017.07 1017.26 1017.44 1017.59 1017.69 1017.72
1017.42 1016.99 1016.50 1016.01 1015.55 1015.17 1014.89 1014.74 1014.71 1014.78 1014.93 1015.11 1015.28 1015.40 1015.46 1015.44 1015.36 1015.24 1015.10 1014.99 1014.91 1014.90 1014.94 1015.04 1015.18 1015.33 1015.47 1015.57 1015.64 1015.67 1015.66 1015.64 1015.63 1015.63 1015.68 1015.78 1015.92 1016.10 1016.30 1016.50 1016.67 1016.80 1016.87
1018.18 1017.74 1017.24 1016.71 1016.22 1015.80 1015.47 1015.26 1015.16 1015.15 1015.21 1015.29 1015.36 1015.37 1015.32 1015.19 1015.00 1014.78 1014.54 1014.33 1014.17 1014.08 1014.07 1014.12 1014.21 1014.33 1014.46 1014.55 1014.62 1014.65 1014.64 1014.62 1014.60 1014.60 1014.63 1014.72 1014.84 1015.01 1015.20 1015.39 1015.57 1015.72 1015.80
1018.93 1018.51 1018.02 1017.51 1017.02 1016.58 1016.22 1015.96 1015.80 1015.71 1015.67 1015.65 1015.59 1015.49 1015.32 1015.08 1014.79 1014.47 1014.14 1013.85 1013.62 1013.46 1013.38 1013.36 1013.41 1013.48 1013.55 1013.62 1013.65 1013.64 1013.61 1013.57 1013.52 1013.49 1013.49 1013.54 1013.63 1013.77 1013.93 1014.10 1014.27 1014.40 1014.50
1019.63 1019.24 1018.80 1018.33 1017.87 1017.45 1017.08 1016.80 1016.58 1016.41 1016.27 1016.13 1015.97 1015.75 1015.47 1015.13 1014.75 1014.35 1013.96 1013.60 1013.31 1013.09 1012.95 1012.87 1012.83 1012.83 1012.83 1012.82 1012.78 1012.72 1012.62 1012.52 1012.42 1012.33 1012.28 1012.28 1012.31 1012.40 1012.51 1012.64 1012.77 1012.89 1012.98
1020.23 1019.91 1019.53 1019.12 1018.72 1018.33 1017.98 1017.68 1017.42 1017.18 1016.96 1016.72 1016.45 1016.12 1015.75 1015.34 1014.90 1014.45 1014.01 1013.62 1013.28 1013.01 1012.81 1012.65 1012.54 1012.44 1012.34 1012.23 1012.08 1011.92 1011.73 1011.54 1011.35 1011.19 1011.07 1010.99 1010.96 1010.98 1011.03 1011.10 1011.18 1011.27 1011.34
1020.75 1020.48 1020.18 1019.85 1019.51 1019.17 1018.85 1018.55 1018.26 1017.97 1017.67 1017.35 1016.99 1016.59 1016.15 1015.68 1015.20 1014.73 1014.28 1013.87 1013.51 1013.20 1012.94 1012.71 1012.50 1012.30 1012.08 1011.84 1011.58 1011.29 1010.99 1010.70 1010.42 1010.17 1009.96 1009.80 1009.70 1009.63 1009.61 1009.61 1009.64 1009.67 1009.71
1021.18 1020.97 1020.74 1020.48 1020.21 1019.93 1019.64 1019.35 1019.04 1018.71 1018.35 1017.96 1017.54 1017.08 1016.60 1016.10 1015.61 1015.13 1014.68 1014.27 1013.90 1013.56 1013.25 1012.95 1012.66 1012.34 1012.01 1011.64 1011.26 1010.85 1010.45 1010.05 1009.68 1009.35 1009.06 1008.82 1008.64 1008.49 1008.39 1008.32 1008.27 1008.24 1008.22
1021.55 1021.40 1021.22 1021.03 1020.82 1020.59 1020.33 1020.05 1019.72 1019.36 1018.96 1018.52 1018.04 1017.55 1017.03 1016.53 1016.03 1015.56 1015.12 1014.71 1014.34 1013.98 1013.62 1013.26 1012.88 1012.47 1012.03 1011.56 1011.07 1010.57 1010.08 1009.60 1009.16 1008.76 1008.41 1008.11 1007.86 1007.64 1007.46 1007.30 1007.17 1007.07 1006.98
1021.89 1021.77 1021.64 1021.50 1021.33 1021.14 1020.91 1020.63 1020.29 1019.90 1019.46 1018.98 1018.47 1017.93 1017.40 1016.88 1016.39 1015.92 1015.49 1015.08 1014.69 1014.31 1013.91 1013.49 1013.04 1012.56 1012.04 1011.50 1010.94 1010.38 1009.83 1009.31 1008.83 1008.40 1008.01 1007.66 1007.35 1007.07 1006.82 1006.58 1006.37 1006.17 1006.01
1022.21 1022.11 1022.01 1021.90 1021.77 1021.59 1021.37 1021.09 1020.74 1020.32 1019.84 1019.33 1018.78 1018.22 1017.66 1017.12 1016.62 1016.14 1015.69 1015.27 1014.86 1014.44 1014.00 1013.53 1013.03 1012.49 1011.92 1011.33 1010.74 1010.16 1009.60 1009.08 1008.60 1008.16 1007.76 1007.39 1007.04 1006.71 1006.39 1006.08 1005.78 1005.49 1005.24
1022.52 1022.43 1022.35 1022.25 1022.13 1021.97 1021.74 1021.44 1021.07 1020.62 1020.11 1019.56 1018.97 1018.38 1017.79 1017.23 1016.69 1016.18 1015.70 1015.24 1014.78 1014.31 1013.82 1013.30 1012.75 1012.17 1011.58 1010.97 1010.38 1009.81 1009.28 1008.78 1008.33 1007.91 1007.52 1007.15 1006.78 1006.41 1006.03 1005.65 1005.27 1004.91 1004.57
1022.82 1022.73 1022.66 1022.56 1022.44 1022.27 1022.03 1021.71 1021.31 1020.83 1020.29 1019.70 1019.08 1018.44 1017.81 1017.20 1016.62 1016.06 1015.52 1014.99 1014.47 1013.93 1013.37 1012.79 1012.20 1011.59 1010.97 1010.37 1009.80 1009.26 1008.77 1008.32 1007.91 1007.52 1007.15 1006.78 1006.40 1006.00 1005.58 1005.14 1004.70 1004.27 1003.88
1023.10 1023.02 1022.94 1022.84 1022.71 1022.51 1022.25 1021.91 1021.48 1020.98 1020.41 1019.78 1019.12 1018.45 1017.77 1017.11 1016.47 1015.83 1015.22 1014.60 1013.99 1013.36 1012.73 1012.08 1011.42 1010.78 1010.15 1009.55 1008.99 1008.49 1008.03 1007.62 1007.25 1006.90 1006.55 1006.18 1005.79 1005.37 1004.91 1004.43 1003.95 1003.48 1003.06
1023.35 1023.27 1023.18 1023.07 1022.92 1022.71 1022.43 1022.06 1021.61 1021.09 1020.49 1019.84 1019.16 1018.45 1017.74 1017.02 1016.31 1015.60 1014.90 1014.19 1013.48 1012.75 1012.02 1011.29 1010.57 1009.87 1009.21 1008.60 1008.05 1007.56 1007.13 1006.74 1006.39 1006.05 1005.70 1005.33 1004.93 1004.48 1004.00 1003.50 1003.00 1002.52 1002.10
1023.56 1023.48 1023.39 1023.26 1023.09 1022.86 1022.56 1022.18 1021.71 1021.18 1020.57 1019.92 1019.22 1018.50 1017.75 1017.00 1016.24 1015.46 1014.68 1013.88 1013.06 1012.24 1011.42 1010.60 1009.80 1009.04 1008.33 1007.69 1007.12 1006.61 1006.17 1005.78 1005.42 1005.07 1004.70 1004.31 1003.89 1003.42 1002.93 1002.42 1001.92 1001.46 1001.07
1023.73 1023.65 1023.54 1023.40 1023.22 1022.97 1022.65 1022.26 1021.79 1021.26 1020.67 1020.02 1019.34 1018.62 1017.87 1017.10 1016.31 1015.48 1014.64 1013.76 1012.87 1011.96 1011.04 1010.14 1009.27 1008.44 1007.67 1006.98 1006.36 1005.81 1005.33 1004.90 1004.50 1004.11 1003.71 1003.28 1002.83 1002.35 1001.84 1001.34 1000.86 1000.44 1000.10
Thickness
5715 5715 5714 5714 5713 5712 5711 5709 5708 5707 5706 5704 5702 5700 5699 5697 5696 5694 5692 5691 5689 5687 5686 5684 5681 5680 5678 5677 5675 5672 5669 5666 5659 5658 5659 5660 5659 5659 5659 5659 5659 5659 5658
5715 5713 5712 5712 5711 5710 5709 5708 5707 5705 5704 5702 5700 5697 5696 5694 5693 5691 5689 5687 5685 5683 5681 5680 5677 5677 5674 5672 5670 5668 5665 5663 5658 5654 5653 5654 5653 5653 5653 5653 5653 5652 5652
5714 5712 5711 5710 5709 5708 5707 5706 5705 5703 5701 5699 5697 5695 5693 5691 5689 5688 5686 5684 5682 5680 5678 5676 5674 5672 5669 5667 5665 5663 5661 5660 5656 5651 5648 5648 5647 5647 5646 5646 5646 5646 5645
5713 5711 5709 5708 5707 5707 5706 5704 5703 5701 5698 5696 5695 5693 5691 5689 5687 5685 5683 5680 5678 5676 5675 5673 5671 5669 5666 5664 5662 5659 5656 5653 5650 5646 5643 5641 5640 5640 5639 5637 5637 5637 5637
5711 5709 5708 5707 5706 5705 5703 5701 5700 5698 5697 5695 5692 5690 5688 5686 5684 5682 5679 5677 5674 5672 5670 5669 5667 5666 5664 5662 5659 5655 5652 5648 5644 5641 5637 5635 5633 5632 5631 5630 5628 5628 5629
5710 5708 5707 5705 5703 5702 5701 5699 5697 5695 5693 5691 5689 5687 5684 5684 5682 5680 5677 5673 5670 5668 5665 5664 5663 5662 5660 5658 5656 5653 5650 5645 5640 5636 5632 5630 5628 5627 5625 5624 5621 5620 5620
5708 5706 5704 5703 5701 5699 5698 5696 5693 5692 5690 5687 5685 5683 5681 5680 5679 5677 5674 5670 5667 5664 5661 5659 5659 5657 5654 5652 5650 5648 5645 5643 5640 5635 5630 5627 5625 5624 5621 5618 5616 5614 5613
5705 5703 5702 5700 5698 5697 5694 5692 5690 5688 5686 5684 5681 5679 5677 5676 5675 5673 5670 5666 5663 5660 5658 5655 5653 5650 5649 5646 5644 5641 5639 5637 5635 5632 5629 5626 5624 5621 5618 5615 5612 5610 5610
5704 5702 5701 5699 5696 5694 5691 5689 5687 5685 5682 5680 5678 5675 5673 5671 5671 5669 5666 5661 5658 5655 5653 5651 5649 5646 5645 5642 5638 5635 5632 5631 5630 5627 5625 5623 5620 5617 5614 5610 5606 5603 5602
5704 5702 5700 5698 5695 5692 5690 5687 5685 5682 5680 5677 5674 5672 5669 5667 5666 5664 5661 5657 5652 5650 5647 5646 5644 5642 5640 5637 5632 5629 5626 5624 5623 5621 5619 5617 5615 5612 5609 5606 5602 5597 5595
5704 5701 5697 5695 5693 5691 5688 5685 5682 5679 5675 5672 5670 5667 5665 5663 5662 5660 5657 5653 5649 5645 5642 5640 5639 5638 5635 5632 5628 5625 5622 5620 5616 5613 5611 5609 5608 5605 5603 5600 5597 5593 5589
5700 5696 5694 5692 5690 5687 5683 5680 5678 5674 5670 5666 5664 5661 5660 5658 5657 5655 5653 5650 5646 5642 5639 5636 5635 5633 5630 5626 5623 5620 5618 5614 5609 5606 5603 5601 5600 5598 5596 5594 5591 5589 5587
5695 5692 5689 5687 5685 5683 5679 5676 5672 5669 5666 5663 5659 5657 5654 5653 5652 5651 5649 5646 5642 5638 5635 5633 5630 5627 5624 5620 5617 5615 5611 5606 5602 5599 5597 5595 5594 5592 5590 5588 5586 5583 5581
5690 5686 5684 5681 5678 5676 5674 5672 5668 5665 5662 5659 5655 5652 5650 5647 5646 5644 5642 5639 5636 5632 5629 5626 5624 5621 5617 5614 5611 5607 5604 5600 5596 5593 5591 5590 5588 5585 5583 5580 5577 5575 5572
5684 5681 5678 5676 5674 5671 5669 5667 5665 5663 5661 5657 5654 5651 5646 5643 5644 5642 5638 5634 5631 5627 5623 5619 5615 5612 5609 5606 5603 5600 5597 5594 5591 5588 5585 5583 5581 5578 5576 5573 5570 5567 5563
5678 5675 5673 5670 5668 5665 5662 5658 5658 5657 5656 5654 5652 5648 5646 5643 5641 5637 5634 5631 5627 5622 5617 5612 5608 5606 5603 5600 5597 5594 5591 5588 5585 5582 5579 5576 5574 5571 5568 5565 5562 5558 5556
5673 5670 5667 5664 5662 5659 5656 5652 5648 5647 5647 5645 5644 5642 5639 5637 5634 5631 5628 5624 5620 5616 5610 5606 5603 5600 5597 5594 5591 5588 5585 5583 5580 5576 5573 5570 5567 5564 5561 5557 5554 5550 5548
5668 5665 5662 5658 5656 5653 5650 5647 5644 5640 5636 5635 5635 5634 5632 5630 5627 5623 5620 5615 5610 5607 5603 5600 5597 5594 5591 5588 5584 5581 5578 5576 5572 5570 5567 5563 5560 5557 5553 5549 5546 5542 5540
5660 5657 5655 5652 5649 5646 5643 5640 5636 5634 5631 5628 5626 5624 5624 5621 5618 5615 5612 5607 5604 5600 5597 5594 5591 5588 5585 5581 5578 5575 5572 5569 5566 5562 5559 5556 5552 5548 5545 5541 5538 5535 5531
5652 5651 5648 5644 5640 5637 5635 5632 5629 5626 5623 5620 5618 5616 5613 5610 5606 5604 5602 5600 5597 5594 5591 5588 5585 5581 5578 5575 5571 5568 5564 5561 5558 5555 5551 5548 5544 5540 5537 5533 5530 5526 5524
5643 5641 5640 5636 5632 5630 5627 5624 5622 5619 5616 5613 5611 5609 5606 5603 5600 5598 5595 5592 5590 5587 5584 5581 5577 5574 5571 5567 5563 5560 5556 5553 5550 5547 5543 5540 5536 5532 5528 5525 5522 5519 5516
5634 5632 5630 5627 5624 5621 5619 5617 5614 5611 5608 5605 5602 5600 5598 5595 5592 5589 5587 5585 5583 5580 5576 5573 5569 5566 5562 5559 5555 5551 5548 5545 5541 5538 5535 5532 5528 5524 5520 5517 5513 5510 5507
5625 5623 5620 5617 5615 5613 5610 5607 5604 5602 5599 5596 5594 5591 5588 5585 5583 5580 5578 5576 5573 5570 5567 5564 5560 5557 5554 5550 5547 5543 5539 5536 5533 5529 5526 5523 5519 5516 5512 5508 5505 5501 5498
5616 5613 5610 5607 5605 5603 5600 5597 5595 5592 5590 5587 5584 5581 5578 5576 5573 5571 5568 5565 5563 5560 5557 5554 5551 5548 5545 5541 5537 5534 5530 5527 5524 5520 5517 5513 5510 5506 5503 5499 5496 5493 5490
5605 5603 5600 5597 5595 5592 5590 5587 5584 5582 5579 5576 5574 5571 5568 5565 5563 5560 5557 5554 5552 5549 5547 5544 5541 5538 5535 5532 5528 5524 5521 5517 5514 5511 5507 5504 5500 5497 5493 5490 5487 5484 5481
5595 5593 5590 5587 5584 5581 5579 5576 5573 5571 5568 5565 5563 5560 5557 5554 5552 5549 5546 5543 5540 5538 5536 5533 5531 5528 5525 5522 5518 5515 5511 5507 5503 5500 5496 5493 5490 5486 5483 5480 5477 5474 5471